Hourly Weather Roundup
Issued by NWS Central Illinois

Home | Current Version | Previous Version | Text Only | Print | Product List | Glossary On
Versions: 1 2 3 4 5 6 7 8 9 10 11 12 13 14 15 16 17 18 19 20 21 22 23 24 25 26 27 28 29 30 31 32 33 34 35 36 37 38 39 40 41 42 43 44 45 46 47 48 49 50
000
NZUS43 KILX 022010
HWRILX

AREA WEATHER ROUNDUP
NATIONAL WEATHER SERVICE, LINCOLN IL
200 PM CST MON MAR 02 2015


CITY           SKY/WX    TMP DP  RH WIND       PRES   REMARKS
BLOOMINGTON    MOSUNNY   28  18  66 E7        30.45  WCI  21
CHAMPAIGN      MOSUNNY   24  17  74 E6        30.46F WCI  17
DECATUR        MOSUNNY   27  19  72 E8        30.46F WCI  19
FLORA          SUNNY     32  17  53 E5        30.47F WCI  27
GALESBURG      CLOUDY    28  17  64 CALM      30.44F
JACKSONVILLE   CLOUDY    32  22  66 E6        30.46F WCI  27
LACON          MOSUNNY   27  15  61 E7        30.46F WCI  19
LAWRENCEVILLE  SUNNY     32  18  56 N8        30.48F WCI  25
LITCHFIELD     MOSUNNY   31  18  57 SW5       30.46F WCI  26
$$


CITY           SKY/WX    TMP DP  RH WIND       PRES   REMARKS
LINCOLN        CLOUDY    31  21  65 CALM      30.48F
MACOMB         CLOUDY    28  18  65 CALM      30.47F
MATTOON        MOSUNNY   30  20  66 N8        30.44F WCI  22
MT CARMEL AP   SUNNY     34  18  51 CALM      30.47F
OLNEY-NOBLE AP MOSUNNY   32  18  55 E7        30.48F WCI  26
PARIS          MOSUNNY   30  22  72 CALM      30.47F
PEORIA         PTSUNNY   34  16  47 SW3       30.45F
PONTIAC        MOSUNNY   24  17  74 SE5       30.47F WCI  18
RANTOUL        PTSUNNY   28  19  68 SE5       30.46F WCI  23
ROBINSON       SUNNY     32  19  59 CALM      30.49F
SPRINGFIELD    CLOUDY    32  20  61 SE8       30.46F WCI  25
TAYLORVILLE    PTSUNNY   30  18  59 SE7       30.46F WCI  23
$$

...REGIONAL REPORTS...


CITY           SKY/WX    TMP DP  RH WIND       PRES   REMARKS
CHICAGO O`HARE CLOUDY    30  11  45 CALM      30.45F
KANKAKEE       SUNNY     27  15  60 SE5       30.48F WCI  21
MOLINE         SUNNY     28  16  60 S7        30.44F WCI  21
MOUNT VERNON   PTSUNNY   32  18  55 NE8       30.46F WCI  25
PITTSFIELD     MOSUNNY   34  20  56 SE3       30.45F
QUINCY         CLOUDY    33  17  51 SE5       30.43F WCI  29
ROCKFORD       CLOUDY    26  13  57 S6        30.46F WCI  19
$$


CITY           SKY/WX    TMP DP  RH WIND       PRES   REMARKS
BURLINGTON     CLOUDY    29  15  56 SE5       30.44F WCI  24
CEDAR RAPIDS   CLOUDY    25  15  66 CALM      30.41F
DES MOINES     CLOUDY    31  15  52 SE7       30.38F WCI  24
KIRKSVILLE     PTSUNNY   32  22  66 SE9       30.40F WCI  24
OTTUMWA        CLOUDY    28  15  58 SE8       30.39F WCI  20
ST LOUIS       PTSUNNY   35  16  45 SE5       30.46F WCI  31
$$


CITY           SKY/WX    TMP DP  RH WIND       PRES   REMARKS
TERRE HAUTE    MOSUNNY   33  16  49 CALM      30.46F
EVANSVILLE     MOSUNNY   37  16  42 VRB7      30.46F WCI  32
INDIANAPOLIS   PTSUNNY   32  14  47 CALM      30.44F
LAFAYETTE      MOSUNNY   27  16  63 SW3       30.47F
MADISON        PTSUNNY   26   7  44 S7        30.42F WCI  18
MILWAUKEE      PTSUNNY   27   7  42 S5        30.44F WCI  22
$$





USA.gov is the U.S. government's official web portal to all federal, state and local government web resources and services.